This is the latest recevied weather packets stored in our database for station/object KG5EO. If no packets are shown the sender has not sent any weather packets the latest 1 day(s).
| Time | Temp. | Humidity | Pressure | Rain* | Wind** | Luminosity | Snow |
|---|---|---|---|---|---|---|---|
| 1778007066 | 23.89° C | 38% | 41 hPa | 0 mm | 0 m/s | - | - |
| 1778006766 | 23.89° C | 40% | 41 hPa | 0 mm | 1.79 m/s, 287° | - | - |
| 1778006467 | 23.33° C | 39% | 41 hPa | 0 mm | 3.13 m/s, 234° | - | - |
| 1778006166 | 23.33° C | 40% | 41 hPa | 0 mm | 1.34 m/s, 217° | - | - |
| 1778005866 | 23.33° C | 40% | 41 hPa | 0 mm | 0.89 m/s, 162° | - | - |
| 1778005566 | 22.78° C | 40% | 41 hPa | 0 mm | 1.79 m/s, 193° | - | - |
| 1778005267 | 22.78° C | 40% | 41 hPa | 0 mm | 1.34 m/s, 236° | - | - |
| 1778004965 | 23.33° C | 42% | 41 hPa | 0 mm | 0.89 m/s, 245° | - | - |
| 1778004665 | 23.33° C | 42% | 41 hPa | 0 mm | 2.24 m/s, 255° | - | - |
| 1778004365 | 22.78° C | 43% | 41 hPa | 0 mm | 0.89 m/s, 233° | - | - |
| 1778004066 | 22.78° C | 44% | 41 hPa | 0 mm | 1.79 m/s, 242° | - | - |
| 1778003765 | 22.78° C | 42% | 41 hPa | 0 mm | 0.45 m/s, 245° | - | - |
| 1778003465 | 22.78° C | 42% | 41 hPa | 0 mm | 0.89 m/s, 305° | - | - |
| 1778003165 | 22.78° C | 45% | 41 hPa | 0 mm | 1.34 m/s, 243° | - | - |
| 1778002865 | 22.78° C | 45% | 41 hPa | 0 mm | 1.34 m/s, 225° | - | - |
| 1778002566 | 22.78° C | 45% | 41 hPa | 0 mm | 0.89 m/s, 288° | - | - |
| 1778002264 | 22.78° C | 45% | 41 hPa | 0 mm | 0.45 m/s, 232° | - | - |
| 1778001964 | 22.78° C | 45% | 41 hPa | 0 mm | 0.45 m/s, 181° | - | - |
| 1778001665 | 22.22° C | 43% | 41 hPa | 0 mm | 0 m/s | - | - |
| 1778001364 | 22.22° C | 43% | 41 hPa | 0 mm | 0.45 m/s, 285° | - | - |
| 1778001063 | 22.22° C | 43% | 41 hPa | 0 mm | 0.89 m/s, 270° | - | - |
| 1778000763 | 22.22° C | 46% | 41 hPa | 0 mm | 0.45 m/s, 257° | - | - |
| 1778000464 | 21.67° C | 44% | 41 hPa | 0 mm | 0.45 m/s, 248° | - | - |
| 1778000164 | 21.11° C | 43% | 41 hPa | 0 mm | 0.45 m/s, 274° | - | - |
| 1777999863 | 21.11° C | 45% | 41 hPa | 0 mm | 0.89 m/s, 297° | - | - |
* Rain latest hour (hover to see other rain measurements)
** Current wind speed in m/s (hover to see current wind gust speed)